Location: Unspecified
(29.4570°N, 0.0000°E)
Time: 07:31:49
(UTC+00:00)

CZ-6A R/B DEB - Visible Passes

Search period start: 04 April 2026 00:00
Search period end: 14 April 2026 00:00
Orbit: 786 x 874 km, 89.0° (Epoch: 26 March)

Date Brightness Start Highest point End Pass type
(mag) Time Alt. Az. Time Alt. Az. Time Alt. Az.
7 Apr ? 05:07:45 10° SE 05:11:49 23° E 05:15:52 10° NNE visible
7 Apr ? 19:14:34 10° NW 19:17:23 14° WNW 19:20:14 10° WSW visible
8 Apr ? 04:50:40 10° ESE 04:53:53 17° E 04:57:06 10° NE visible
8 Apr ? 18:55:35 10° NW 18:59:29 20° W 19:03:26 10° SW visible
9 Apr ? 04:34:18 10° E 04:36:00 12° ENE 04:37:41 10° ENE visible
13 Apr ? 04:59:58 10° SSE 05:04:44 37° E 05:09:31 10° NNE visible
